Location: ?????
(55.8833°N, 37.6500°E)
Time: 18:49:22
(UTC+00:00)

STARLINK-1029 - Pass Details

Date: 27 February 2020
Orbit: 382 x 390 km, 53.0° (Epoch: 29 March)

Event Time Altitude Azimuth Distance (km) Brightness Sun altitude
Rises 16:20:58 0° 255° (WSW) 2,277 8.3 -12.4°
Reaches altitude 10° 16:23:03 10° 250° (WSW) 1,424 6.9 -12.6°
Maximum altitude 16:26:08 49° 175° (S) 518 3.4 -13.1°
Enters shadow 16:27:39 25° 112° (ESE) 831 4.0 -13.3°
